Atlantic City, NJ

8:48 AM EDT on March 30, 2017 (GMT -0400)
Atlantic City International

Weather History for KACY - January, 2014

Change the Weather History Date:

Friday, January 17, 2014

  Actual Average Record
Temperature  
Mean Temperature 34 °F 33 °F  
Max Temperature 47 °F 41 °F 63 °F (1973)
Min Temperature 20 °F 24 °F -10 °F (1977)
Degree Days  
Heating Degree Days 31 32  
Month to date heating degree days 565 542  
Since 1 July heating degree days 2365 2311  
Cooling Degree Days 0 0  
Month to date cooling degree days 0 0  
Year to date cooling degree days 0 0  
Moisture  
Dew Point 28 °F    
Average Humidity 65    
Maximum Humidity 92    
Minimum Humidity 38    
Precipitation  
Precipitation 0.00 in 0.10 in 1.16 in (1978)
Month to date precipitation 2.56 1.80  
Year to date precipitation 2.56 1.80  
Snow  
Snow 0.00 in 0.20 in 4.00 in (1907)
Month to date snowfall 6.5 2.1  
Since 1 July snowfall 9.8 6.0  
Snow Depth 0.00 in    
Sea Level Pressure  
Sea Level Pressure 29.95 in    
Wind  
Wind Speed 5 mph (South)    
Max Wind Speed 16 mph    
Max Gust Speed 20 mph    
Visibility 9 miles    
Events      
T = Trace of Precipitation, MM = Missing Value Source: NWS Daily Summary

Daily Weather History Graph

Daily Weather History Graph

Search for Another Location

Airport or City:

Trip Planner

Search our weather history database for the weather conditions in past years. The results will help you decide how hot, cold, wet, or windy it might be!

Date:

Astronomy

Jan. 17, 2014 Rise Set
Actual Time 7:16 AM EST 5:01 PM EST
Civil Twilight 6:46 AM EST 5:30 PM EST
Nautical Twilight 6:13 AM EST 6:03 PM EST
Astronomical Twilight 5:41 AM EST 6:35 PM EST
Moon 6:44 PM EST (1/17) 7:43 AM EST (1/17)
Length of Visible Light 10h 43m
Length of Day
9h 45m
Full, 98% of the Moon is Illuminated
Jan 17
Full
Jan 24
Last Quarter
Jan 30
New
Feb 6
First Quarter
Feb 14
Full

Hourly Weather History & Observations

Time (EST) Temp. Windchill Dew Point Humidity Pressure Visibility Wind Dir Wind Speed Gust Speed Precip Events Conditions
12:54 AM 28.9 °F 25.2 °F 21.9 °F 75% 29.97 in 10.0 mi SSW 3.5 mph - N/A   Clear
1:54 AM 23.0 °F - 19.0 °F 85% 29.98 in 9.0 mi Calm Calm - N/A   Clear
2:54 AM 21.9 °F - 19.9 °F 92% 29.99 in 9.0 mi Calm Calm - N/A   Clear
3:54 AM 24.1 °F - 19.9 °F 84% 29.98 in 8.0 mi Calm Calm - N/A   Clear
4:54 AM 26.1 °F - 21.9 °F 84% 29.98 in 8.0 mi Calm Calm - N/A   Clear
5:54 AM 21.9 °F 17.2 °F 19.0 °F 89% 29.96 in 7.0 mi ESE 3.5 mph - N/A   Clear
6:54 AM 30.0 °F 23.2 °F 28.0 °F 92% 29.97 in 8.0 mi South 6.9 mph - N/A   Clear
7:54 AM 33.1 °F 27.7 °F 30.0 °F 89% 29.98 in 6.0 mi SSE 5.8 mph - N/A   Clear
8:54 AM 37.0 °F 32.4 °F 34.0 °F 89% 30.00 in 8.0 mi South 5.8 mph - N/A   Clear
9:04 AM 37.9 °F 33.5 °F 34.0 °F 86% 30.00 in 6.0 mi South 5.8 mph - N/A   Clear
9:54 AM 41.0 °F 34.3 °F 33.1 °F 73% 30.01 in 10.0 mi South 11.5 mph - N/A   Clear
10:54 AM 43.0 °F 37.2 °F 30.0 °F 60% 29.99 in 10.0 mi SW 10.4 mph - N/A   Clear
11:54 AM 45.0 °F 39.3 °F 27.0 °F 49% 29.96 in 10.0 mi SW 11.5 mph - N/A   Clear
12:54 PM 45.0 °F 39.7 °F 26.1 °F 48% 29.94 in 10.0 mi SW 10.4 mph - N/A   Clear
1:54 PM 46.0 °F 40.6 °F 23.0 °F 40% 29.92 in 10.0 mi SW 11.5 mph - N/A   Clear
2:54 PM 46.0 °F 41.4 °F 25.0 °F 44% 29.93 in 10.0 mi WSW 9.2 mph - N/A   Clear
3:54 PM 46.0 °F 42.5 °F 26.1 °F 46% 29.91 in 10.0 mi South 6.9 mph - N/A   Clear
4:54 PM 43.0 °F 38.8 °F 30.9 °F 62% 29.92 in 10.0 mi South 6.9 mph - N/A   Clear
5:54 PM 41.0 °F 38.0 °F 33.1 °F 73% 29.93 in 10.0 mi South 4.6 mph - N/A   Clear
6:54 PM 41.0 °F 38.0 °F 33.1 °F 73% 29.93 in 10.0 mi South 4.6 mph - N/A   Mostly Cloudy
7:54 PM 39.9 °F - 33.1 °F 77% 29.94 in 10.0 mi Calm Calm - N/A   Scattered Clouds
8:54 PM 36.0 °F - 32.0 °F 86% 29.93 in 10.0 mi Calm Calm - N/A   Clear
9:54 PM 36.0 °F 33.3 °F 32.0 °F 86% 29.92 in 10.0 mi ESE 3.5 mph - N/A   Mostly Cloudy
10:54 PM 37.0 °F 34.5 °F 33.1 °F 86% 29.90 in 10.0 mi East 3.5 mph - N/A   Overcast
11:54 PM 37.9 °F 35.5 °F 35.1 °F 89% 29.86 in 10.0 mi East 3.5 mph - N/A   Overcast